P/2018 L4 ( PanSTARRS )

Japanese version
Home page
Updated on June 25, 2018

---------------------------------------------------------------------

* Profile

Discovery Date June 8, 2018
Magnitude 21.0 mag
Discoverer Pan-STARRS 1 telescope (Haleakala)

* Orbital Elements

Epoch 2018 July 21.0 TT = JDT 2458320.5
T 2018 July 31.76006 TT                                 MPCW
q   1.6764108            (2000.0)            P               Q
n   0.09017579     Peri.  140.35638     +0.30708417     +0.91672356
a   4.9250359      Node   145.21941     -0.94653813     +0.32208943
e   0.6596145      Incl.   26.61738     -0.09881740     -0.23638171
P  10.93
From 79 observations 2018 May 19-June 22, mean residual 0".5.

* Magnitudes Graph

        m1 = 17.0 + 5 log d + 10.0 log r

---------------------------------------------------------------------

The orbital elements are published on M.P.E.C. 2018-M83.
The magnitudes graphs are made with Comet for Windows.

---------------------------------------------------------------------

Copyright(C) Seiichi Yoshida (comet@aerith.net). All rights reserved.